Weather in Boulder

United States     40°10′08″N   105°06′18″W
temp.,
°C
wind,
m/s
gust,
m/s
humid.,
%
clouds,
%
prec.,
mm/h
press.,
hPa
HPBL,
m
16 september, thu
thu1600:00+16nw11260 0.0 100711
03:00+13nw11265 0.0 100711
06:00+13w22240 0.0 100711
09:00+25sw25120 0.0 1006291
12:00+33sw3775 0.0 10024628
15:00+33w248100 0.0 10005046
18:00+31se3410100 0.0 1001223
21:00+21wnw11186 0.0 100611
17 september, fri
fri1700:00+21n71421100 0.0 1010528
03:00+13nne611490 0.0 1018381
06:00+7ne23700 0.0 102432
09:00+11ene11520 0.0 1025549
12:00+18sse33330 0.0 1020881
15:00+26se55205 0.0 10151283
18:00+26ese552212 0.0 1013843
21:00+14nnw22510 0.0 101711
18 september, sat
sat1800:00+13n45590 0.0 101857
03:00+9se00660 0.0 101810
06:00+9se11620 0.0 101810
09:00+21sw12150 0.0 1017195
12:00+31sse3560 0.0 10122606
15:00+34sse4450 0.0 10072947
18:00+30nnw11794 0.0 100512
21:00+26wnw3313100 0.0 100828
19 september, sun
sun1900:00+20wsw23296 0.0 101013
03:00+17wnw2243100 0.0 101118
06:00+19wsw47431 0.0 101171
09:00+25sw47270 0.0 1009859
12:00+31s591612 0.0 10053766
15:00+31nne1414100 0.0 10013635
18:00+31w911135 0.0 10002368
21:00+22wnw46255 0.0 100461
20 september, mon
mon2000:00+19ssw34310 0.0 100426
03:00+16n712356 0.0 1007293
06:00+12s334514 0.0 101032
09:00+17s46300 0.0 1012647
12:00+24wnw913155 0.0 10113294
15:00+26nw1014105 0.0 10083966
18:00+23w46994 0.0 10131849
21:00+12ene35435 0.0 102399